Volver al catálogo

COSMOS 1818 COOLANT

LostLEO
NORAD 36950·DEBRIS·🇷🇺 Russia

Lanzado Feb 1, 1987 desde Baikonur Cosmodrome

Loading…

Próximos Pases (próximas 24 horas)

TLE

ObsoletoSource: Space-Track

Época: Oct 6, 2010, 03:27 UTC

1 36950U 87011AE  10279.14439346  .00000083  00000-0  69553-4 0  9996
2 36950  65.0062 102.9980 0019734 249.9385 109.9530 14.30742457 53841

Sigue COSMOS 1818 COOLANT en tiempo real con AllMySat

Download on the App Store